Flag for Netherlands Weather past 2 weeks in Montfoort, Netherlands

Now
58 °F

Passing clouds.


Feels Like: 58 °F
Forecast: 53 / 67 °F
Wind: 3 mph from Southwest

Location: De Bilt

Current Time: Aug 31, 2014 at 2:26:32 AM

Latest Report: Aug 31, 2014 at 2:00 AM


Visibility: 14 mi

Pressure: 29.96 "Hg

Humidity: 92%

Dew point: 55 °F

Location of MontfoortLocation

Historic Weather in Montfoort — Graph

°F

Montfoort temperature yesterday

Maximum temperature yesterday: 65 °F (at 3:00 PM)
Minimum temperature yesterday: 58 °F (at 11:00 PM)
Average temperature yesterday: 62 °F

Past Weeks' High & Low Weather Summary

 TemperatureHumidityPressure
High70 °F (Aug 28, 4:00 PM)100% (Aug 19, 2:00 AM)30.09 "Hg (Aug 19, 2:00 AM)
Low44 °F (Aug 27, 7:00 AM)49% (Aug 24, 4:00 PM)29.62 "Hg (Aug 18, 8:00 AM)
Average58 °F84%29.91 "Hg
* Reported Aug 16 1:00 AM — Aug 31 1:00 AM, Montfoort, Weather by CustomWeather, © 2014

Note: Actual official high and low records may vary slightly from our data, if they occured in-between our weather recording intervals... More about our weather records

Advertising

Montfoort weather history for previous 24 hours

 ConditionsComfort  
Time TempWeatherWind HumidityBarometerVisibility
1:00 AM
Aug 31
58 °FOvercast.2 mph92%29.96 "Hg12 mi
12:00 AM58 °FOvercast.3 mph91%29.97 "Hg12 mi
11:00 PM
Aug 30
58 °FOvercast.2 mph92%29.98 "Hg15 mi
10:00 PM58 °FOvercast.2 mph91%29.98 "Hg19 mi
9:00 PM60 °FPassing clouds.2 mph88%29.97 "Hg12 mi
8:00 PM61 °FRain showers. Overcast.3 mph85%29.96 "Hg8 mi
7:00 PM62 °FRain showers. Overcast.5 mph77%29.96 "Hg14 mi
6:00 PM63 °FScattered clouds.6 mph72%29.95 "Hg17 mi
5:00 PM65 °FOvercast.6 mph62%29.95 "Hg12 mi
4:00 PM65 °FOvercast.5 mph79%29.94 "Hg17 mi
3:00 PM65 °FOvercast.5 mph85%29.94 "Hg19 mi
2:00 PM64 °FLow clouds.7 mph89%29.95 "Hg9 mi
1:00 PM65 °FLow clouds.5 mph91%29.95 "Hg18 mi
12:00 PM63 °FLow clouds.6 mph93%29.95 "Hg16 mi
11:00 AM61 °FLight rain. Low clouds.5 mph97%29.95 "Hg6 mi
10:00 AM61 °FRain. Low clouds.6 mph96%29.95 "Hg3 mi
9:00 AM61 °FLow clouds.6 mph94%29.95 "Hg7 mi
8:00 AM60 °FRain showers. Low clouds.5 mph95%29.94 "Hg5 mi
7:00 AM60 °FSprinkles. Low clouds.5 mph97%29.93 "Hg6 mi
6:00 AM60 °FRain. Low clouds.6 mph96%29.94 "Hg2 mi
5:00 AM62 °FOvercast.6 mph85%29.94 "Hg11 mi
4:00 AM62 °FOvercast.5 mph86%29.94 "Hg9 mi
3:00 AM61 °FOvercast.5 mph84%29.95 "Hg12 mi
2:00 AM61 °FOvercast.5 mph82%29.96 "Hg14 mi
Weather by CustomWeather, © 2014

See weather overviewHow to use our weather pages